2017-042F (42830 NORAD) Tracking and Keplerian Element Data

This shows tracking and keplerian element data for the satellite.

Feedback or suggestion? Click here.




ElementValue
Catalog42830
Name2017-042F
Epoch Orbit22774
Epoch Day261.90367303
Epoch Year2021
RAAN129.4159
Inclination97.468
Eccentricity0.0013606
Argument of Perigee180.3153
Mean Anonmoly179.8061
Mean Motion14.93068825
Decay Rate1.058E-05
L11 42830U 17042F 21261.90367303 .00001058 00000-0 10652-3 0 9995
L22 42830 97.4680 129.4159 0013606 180.3153 179.8061 14.93068825227741

Live tracking and technical data element details for 2017-042F (NORAD 42830). 2017-042F can be tracked NOW for your location showing map with azimuth and elevation plus other details from your city location.

Track the satellite on the map from your city or location and see movement details for azimuth, elevation, latitude, longitude, range, height, and movement on the map or in text.







IsCatalogInMostPopularTable: catalog: 42830, numindb: 519
Update: records affected: 1



GetName: 42830 2017-042F

Hit Count: updated at: Sun, 26 Sep 2021 01:22:19 GMT